Weather History for Kirksville, MO

Change the Weather History Date:

Monday, January 7, 2013

  Actual Average Record
Temperature  
Mean Temperature 31 °F 26 °F  
Max Temperature 41 °F 35 °F 66 °F (2008)
Min Temperature 20 °F 17 °F -14 °F (1968)
Degree Days  
Heating Degree Days 34 39  
Month to date heating degree days 292 273  
Since 1 July heating degree days 2534 2616  
Cooling Degree Days 0 0  
Month to date cooling degree days 0 0  
Year to date cooling degree days 0 0  
Moisture  
Dew Point 23 °F    
Average Humidity 69    
Maximum Humidity 84    
Minimum Humidity 54    
Precipitation  
Precipitation 0.00 in 0.03 in 0.63 in (1937)
Month to date precipitation 0.06 0.23  
Year to date precipitation 0.06 0.23  
Sea Level Pressure  
Sea Level Pressure 30.21 in    
Wind  
Wind Speed 10 mph (SSW)    
Max Wind Speed 17 mph    
Max Gust Speed 23 mph    
Visibility 10 miles    
Events      
T = Trace of Precipitation, MM = Missing Value Source: NWS Daily Summary

Daily Weather History Graph

Daily Weather History Graph

Search for Another Location

Airport:

Trip Planner

Search our weather history database for the weather conditions in past years. The results will help you decide how hot, cold, wet, or windy it might be!

Date:

Astronomy

Jan. 07, 2013 Rise Set
Actual Time 7:32 AM CST 5:01 PM CST
Civil Twilight 7:02 AM CST 5:31 PM CST
Nautical Twilight 6:28 AM CST 6:05 PM CST
Astronomical Twilight 5:55 AM CST 6:37 PM CST
Moon 2:56 AM CST (1/7) 1:12 PM CST (1/7)
Length of Visible Light 10h 29m
Length of Day
9h 28m
Waning Crescent, 22% of the Moon is Illuminated
Jan 7
Waning Crescent
Jan 11
New
Jan 18
First Quarter
Jan 26
Full
Feb 3
Last Quarter

Hourly Weather History & Observations

Time (CST) Temp. Windchill Dew Point Humidity Pressure Visibility Wind Dir Wind Speed Gust Speed Precip Events Conditions
12:55 AM 24.1 °F 13.7 °F 19.0 °F 81% 30.32 in 10.0 mi South 10.4 mph - N/A   Clear
1:55 AM 24.1 °F 15.2 °F 19.0 °F 81% 30.33 in 9.0 mi SSW 8.1 mph - N/A   Clear
2:55 AM 24.1 °F 14.4 °F 19.0 °F 81% 30.33 in 9.0 mi South 9.2 mph - N/A   Clear
3:55 AM 25.0 °F 16.3 °F 18.0 °F 75% 30.32 in 10.0 mi SSW 8.1 mph - N/A   Clear
4:55 AM 24.1 °F 14.4 °F 18.0 °F 77% 30.30 in 10.0 mi South 9.2 mph - N/A   Clear
5:55 AM 21.9 °F 13.4 °F 17.1 °F 82% 30.30 in 9.0 mi South 6.9 mph - N/A   Clear
6:55 AM 21.9 °F 12.5 °F 17.1 °F 82% 30.30 in 9.0 mi South 8.1 mph - N/A   Clear
7:55 AM 24.1 °F 14.4 °F 18.0 °F 77% 30.29 in 9.0 mi South 9.2 mph - N/A   Clear
8:55 AM 28.0 °F 19.3 °F 19.0 °F 69% 30.29 in 10.0 mi SSW 9.2 mph - N/A   Clear
9:55 AM 33.1 °F 23.0 °F 21.0 °F 61% 30.28 in 10.0 mi SSW 15.0 mph 18.4 mph N/A   Clear
10:55 AM 36.0 °F 28.0 °F 23.0 °F 59% 30.25 in 10.0 mi South 11.5 mph 20.7 mph N/A   Clear
11:55 AM 37.9 °F 29.6 °F 23.0 °F 55% 30.21 in 10.0 mi SSW 13.8 mph 20.7 mph N/A   Clear
12:55 PM 39.2 °F 32.0 °F 24.8 °F 56% 30.13 in 10.0 mi SSW 11.5 mph - N/A   Clear
1:55 PM 39.9 °F 32.1 °F 24.1 °F 53% 30.15 in 10.0 mi SSW 13.8 mph 20.7 mph N/A   Clear
2:55 PM 39.9 °F 33.4 °F 27.0 °F 60% 30.15 in 10.0 mi South 10.4 mph - N/A   Clear
3:55 PM 39.0 °F 31.4 °F 27.0 °F 62% 30.13 in 10.0 mi South 12.7 mph - N/A   Clear
4:55 PM 37.4 °F 29.3 °F 26.6 °F 65% 30.08 in 10.0 mi SSW 12.7 mph - N/A   Clear
5:55 PM 37.9 °F 30.5 °F 27.0 °F 65% 30.11 in 10.0 mi South 11.5 mph - N/A   Clear
6:55 PM 37.9 °F 31.5 °F 26.1 °F 62% 30.12 in 10.0 mi SSW 9.2 mph - N/A   Clear
7:55 PM 36.0 °F 30.3 °F 26.1 °F 67% 30.11 in 10.0 mi SSW 6.9 mph - N/A   Clear
8:55 PM 36.0 °F 29.6 °F 26.1 °F 67% 30.12 in 10.0 mi SSW 8.1 mph - N/A   Clear
9:55 PM 35.1 °F 30.1 °F 25.0 °F 67% 30.12 in 10.0 mi SSW 5.8 mph - N/A   Clear
10:55 PM 33.1 °F 27.7 °F 25.0 °F 72% 30.11 in 10.0 mi SSW 5.8 mph - N/A   Clear
11:55 PM 33.1 °F 27.7 °F 25.0 °F 72% 30.10 in 10.0 mi SSW 5.8 mph - N/A   Clear